Tracking 31027 objects as of 19-Jul-2025
HD Live streaming from Space Station
objects crossing your sky now

STARLINK-5035

Track STARLINK-5035 now!
10-day predictions
STARLINK-5035 is classified as:


NORAD ID: 53897
Int'l Code: 2022-119M
Perigee: 545.9 km
Apogee: 547.9 km
Inclination: 53.2 °
Period: 95.4 minutes
Semi major axis: 6917 km
RCS: Unknown
Launch date: September 24, 2022
Source: United States (US)
Launch site: AIR FORCE EASTERN TEST RANGE (AFETR)
Your satellite tracking list
NOAA 16 DEB
Track 1 satellite(s)




NASA's NSSDC Master Catalog

Two Line Element Set (TLE):
1 53897U 22119M   25199.52430285  .00002914  00000-0  20116-3 0  9991
2 53897  53.2182 295.3267 0001472  92.7820 267.3341 15.08833782155913
Source of the keplerian elements: AFSPC